Regional Weather Roundup
Issued by NWS

Home | Current Version | Previous Version | Graphics & Text | Print | Product List | Glossary On
Versions: 1 2 3 4 5 6 7 8 9 10 11 12 13 14 15 16 17 18 19 20 21 22 23 24 25 26 27 28 29 30 31 32 33 34 35 36 37 38 39 40 41 42 43 44 45 46 47 48 49 50
000
ASUS45 KCYS 012210
RWRWY

WYOMING REGIONAL WEATHER ROUNDUP
NATIONAL WEATHER SERVICE CHEYENNE WY
400 PM MDT WED APR 01 2015

NOTE:  "FAIR" INDICATES FEW OR NO CLOUDS BELOW 12,000 FEET
WITH NO SIGNIFICANT WEATHER AND/OR OBSTRUCTIONS TO VISIBILITY.

WYZ001-012300-
YELLOWSTONE NATIONAL PARK

CITY           SKY/WX    TMP DP  RH WIND       PRES   REMARKS
LK YELLOWSTONE   N/A     25  15  66 VRB7G17   29.95R WCI  17
W YELLOWSTONE  NOT AVBL

$$
WYZ002>013-054>058-071-098>099-012300-
NORTHERN WYOMING

CITY           SKY/WX    TMP DP  RH WIND       PRES   REMARKS
JACKSON        PTSUNNY   36  18  48 SW9       29.96F WCI  29
CODY           PTSUNNY   45  14  29 W13G25    29.90R
GREYBULL       FAIR      50   7  17 N23G30    29.85R
WORLAND        CLOUDY    51   8  17 W12G23    29.85S
SHERIDAN       CLOUDY    49  11  21 NW28      29.84R
BUFFALO        CLOUDY    45  13  27 N18G32    29.85R
GILLETTE       PTSUNNY   51  12  21 NW26G33   29.82F
HULETT         CLOUDY    50  18  27 NW13G23   29.83S
NEWCASTLE      FAIR      45  25  45 N21G26    29.82F

$$
WYZ014>020-022>026-101>103-012300-
CENTRAL WYOMING

CITY           SKY/WX    TMP DP  RH WIND       PRES   REMARKS
BIG PINEY      PTSUNNY   42   6  22 NW16G25   29.97S
PINEDALE       FAIR      37  10  32 W14G24    29.97R WCI  29
DUBOIS         FAIR      36   5  27 NW21G32   29.89F WCI  24
LANDER         NOT AVBL
RIVERTON       FAIR      51   6  16 NW21G28   29.86S
CASPER         FAIR      50  27  40 N12       29.83F
DOUGLAS        FAIR      50  27  40 N16       29.85S

$$
WYZ021-027>030-104>119-012300-
SOUTHERN WYOMING

CITY           SKY/WX    TMP DP  RH WIND       PRES   REMARKS
EVANSTON       FAIR      42   7  23 W17G23    30.01F
KEMMERER       FAIR      41   5  22 W20G25    29.99F
FORT BRIDGER   FAIR      46   4  18 NW21      30.01F
ROCK SPRINGS   FAIR      45   3  17 W25G35    29.95S
DIXON          FAIR      54   8  16 W18G28    29.92F
RAWLINS        FAIR      49  -1  12 W26G35    29.89S
SARATOGA       FAIR      50   5  16 W16G28    29.90S
LARAMIE        FAIR      51  14  22 W23G33    29.85S
CHEYENNE       FAIR      58  24  27 NW22G35   29.78R
TORRINGTON     PTSUNNY   59  30  33 N29G37    29.73R
PINE BLUFFS    MOCLDY    59  32  36 NW12      29.76S

$$



USA.gov is the U.S. government's official web portal to all federal, state and local government web resources and services.